Location: Kellogg
(38.0159°N, 90.0546°W)
Time: 06:55:11
(UTC+00:00)

Vanguard 1 Rocket - Pass Details

Date: 19 September 2024
Orbit: 650 x 4218 km, 34.3° (Epoch: 05 October)

Event Time Altitude Azimuth Distance (km) Brightness Sun altitude
Rises 10:09:53 0° 258° (WSW) 5,311 - -19.4°
Reaches altitude 10° 10:12:40 10° 257° (WSW) 4,662 - -18.9°
Exits shadow 10:15:44 23° 255° (WSW) 4,043 10.0 -18.3°
Maximum altitude 10:27:19 79° 173° (S) 3,320 10.1 -16.1°
Drops below altitude 10° 10:52:43 10° 93° (E) 7,417 13.4 -11.2°
Sets 10:58:38 0° 93° (E) 8,440 14.2 -10.1°
